Regional Weather Roundup
Issued by NWS

Home | Current Version | Previous Version | Text Only | Print | Product List | Glossary Off
Versions: 1 2 3 4 5 6 7 8 9 10 11 12 13 14 15 16 17 18 19 20 21 22 23 24 25 26 27 28 29 30 31 32 33 34 35 36 37 38 39 40 41 42 43 44 45 46 47 48 49 50

000
ASUS43 KLOT 030612
RWRIL

ILLINOIS REGIONAL WEATHER ROUNDUP
NATIONAL WEATHER SERVICE CHICAGO/ROMEOVILLE IL
100 AM CDT WED JUN 03 2015

NOTE: "FAIR" INDICATES FEW OR NO CLOUDS BELOW 12,000 FEET WITH NO
SIGNIFICANT WEATHER AND/OR OBSTRUCTIONS TO VISIBILITY.

* THESE STATIONS ARE NOT UNDER NWS QUALITY CONTROL. THEY ALSO MAY NOT
  REPORT WEATHER SUCH AS PRECIPITATION OR FOG.

ILZ001-002-007-009-015-016-024-030700-
NORTHWEST ILLINOIS

CITY           SKY/WX    TMP DP  RH WIND       PRES   REMARKS
MOLINE         PTCLDY    59  50  72 SE5       30.02F
6HR MIN TEMP:  57; 6HR MAX TEMP:  72;

STERLING*      PTCLDY    57  48  72 CALM      30.05F
SAVANNA*       MOCLDY    60  49  65 SE7       30.04S
$$

ILZ003-004-008-010-011-017-018-030700-
NORTH CENTRAL ILLINOIS

CITY           SKY/WX    TMP DP  RH WIND       PRES   REMARKS
ROCKFORD       CLOUDY    58  49  72 SE8       30.07F
6HR MIN TEMP:  58; 6HR MAX TEMP:  71;

FREEPORT*      MOCLDY    55  47  75 SE7       30.07S
ROCHELLE*      PTCLDY    57  49  74 SE9       30.07S
DE KALB*       CLEAR     53  47  79 SE7       30.08F
PERU*          PTCLDY    61  51  69 SE12      30.06S
$$

ILZ005-006-012>014-019>023-030700-
NORTHEAST ILLINOIS

CITY           SKY/WX    TMP DP  RH WIND       PRES   REMARKS
CHICAGO-OHARE  PTCLDY    54  44  69 SE6       30.09S
6HR MIN TEMP:  52; 6HR MAX TEMP:  68;

CHICAGO-MIDWAY MOCLDY    57  47  69 E5        30.09F
6HR MIN TEMP:  57; 6HR MAX TEMP:  66;

AURORA         CLEAR     55  46  71 E5        30.09S
6HR MIN TEMP:  54; 6HR MAX TEMP:  71;

LANSING*       CLEAR     50  45  82 CALM      30.09F
JOLIET*        CLEAR     56  50  80 CALM      30.09S
WAUKEGAN       CLEAR     50  44  80 S5        30.09S
6HR MIN TEMP:  45; 6HR MAX TEMP:  60;

DUPAGE AIRPORT CLEAR     55  45  68 SE6       30.08S
6HR MIN TEMP:  54; 6HR MAX TEMP:  70;

KANKAKEE*      CLEAR     58  53  83 SE6       30.08F
WHEELING       CLEAR     52  45  77 CALM      30.11S
6HR MIN TEMP:  51; 6HR MAX TEMP:  64;

MORRIS*        CLEAR     55  49  80 E5        30.06S
ROMEOVILLE*    CLEAR     53  46  77 E5        30.09S
NORTHERLY ISL    N/A     53  48  83 CALM        N/A
$$

LMZ740>746-030700-
SOUTHERN LAKE MICHIGAN

STATION/POSITION SKY/WX   TEMP    WIND        PRES    VSBY  WAVE
                          AIR SEA DIR/SP/G                  HT/PER
                          (F)     (DEG/KT/KT) (MB)    (MI)  (FT/S)
SOUTHERN BUOY              44 38  130/  8/ 10 1019.7F
HARRISON CRIB              53     160/  4/  6   N/A
BURNHAM HARBOR             52      CALM  /  3   N/A
CALUMET HARBOR             56      80/  3/  5   N/A
BURNS HARBOR                       80/  4/  6 1019.6F
MICHIGAN CITY              57      90/  6/  7   N/A
MICHIGAN CITY 6N           57 56  160/  6/  8   N/A           1/ 3
ST. JOSEPH                 57 55  160/ 10/ 12   N/A           1
$$

ILZ025>027-034>036-040-047-049-050-058-095>099-030700-
WEST-CENTRAL ILLINOIS

CITY           SKY/WX    TMP DP  RH WIND       PRES   REMARKS
QUINCY         CLEAR     60  55  83 SE5       30.02S
GALESBURG*     PTCLDY    60  52  76 E5        30.03F
MACOMB*        CLEAR     58  54  86 CALM      30.05S
JACKSONVILLE*  CLEAR     63  58  84 S6        30.04S
PITTSFIELD*    CLEAR     61  58  87 S5        30.05S
$$

ILZ028>032-037-038-041>044-048-051>054-059>061-030700-
CENTRAL ILLINOIS

CITY           SKY/WX    TMP DP  RH WIND       PRES   REMARKS
PONTIAC        CLEAR     58  56  90 SE8       30.08F
BLOOMINGTON    CLEAR     59  56  89 SE14      30.07F
DECATUR        CLEAR     58  55  90 E7        30.06S
PEORIA         PTCLDY    59  52  77 E6        30.04F
6HR MIN TEMP:  59; 6HR MAX TEMP:  72;

LACON*         PTCLDY    61  50  67 E8        30.04S
LINCOLN*       CLEAR     60  56  86 CALM      30.03S
SPRINGFIELD    CLEAR     60  56  86 S6        30.04F
6HR MIN TEMP:  60; 6HR MAX TEMP:  73;

TAYLORVILLE    CLEAR     57  55  94 CALM      30.05S FOG
$$

ILZ033-039-045-046-055>057-062-063-030700-
EAST-CENTRAL ILLINOIS

CITY           SKY/WX    TMP DP  RH WIND       PRES   REMARKS
CHAMPAIGN      CLEAR     58  54  86 E10       30.07F
DANVILLE*      CLEAR     56  53  89 SE5       30.05F
RANTOUL*       CLEAR     60  55  86 SE7       30.08S
MATTOON        CLEAR     58  56  93 SE7       30.06S
PARIS*         CLEAR     57  54  89 E3        30.09F
$$

ILZ079-100>102-030700-
SOUTHWEST ILLINOIS

CITY           SKY/WX    TMP DP  RH WIND       PRES   REMARKS
ALTON          CLEAR     58  58 100 S3        30.06S
BELLEVILLE     CLEAR     58  58  99 SE5       30.04F
CAHOKIA*       CLEAR     59  56  89 S3        30.05F
SPARTA*        CLOUDY    61  56  85 CALM      30.06F
$$

ILZ064>066-069>071-074>076-080>082-084>086-088>090-092>094-030700-
SOUTH-CENTRAL ILLINOIS

CITY           SKY/WX    TMP DP  RH WIND       PRES   REMARKS
CARBONDALE     PTCLDY    59  56  89 CALM      30.05F
6HR MIN TEMP:  59; 6HR MAX TEMP:  64;

CAIRO*         CLOUDY    63  59  86 E6        30.05S
EFFINGHAM*     CLEAR     57  55  91 CALM      30.07S FOG
MARION         CLEAR     57  55  94 CALM      30.06F FOG
MT. VERNON       N/A     52  46  82 CALM      30.06F VSB 3/4
CENTRALIA*     CLEAR     55  53  94 CALM      30.06F
SALEM*         CLEAR     58  56  91 CALM      30.07S FOG
$$

ILZ067-068-072-073-078-083-087-091-030700-
SOUTHEAST ILLINOIS

CITY           SKY/WX    TMP DP  RH WIND       PRES   REMARKS
LAWRENCEVILLE  CLEAR     58  55  90 E7        30.08S
FLORA*         CLEAR     55  54  97 CALM      30.06F FOG
FAIRFIELD*     CLEAR     53  52  99 CALM      30.05F FOG
HARRISBURG*    CLEAR     54  54 100 CALM      30.07F FOG
ROBINSON*      CLOUDY    60  56  86 E6        30.09S
CARMI*         FOG       54  50  87 CALM      30.06F VSB 1/4
$$

ABBREVIATIONS USED IN REMARKS
   TC - TEMPERATURE IN CELSIUS
  WCI - WIND CHILL INDEX
   HX - HEAT INDEX
  VSB - VISIBILITY
$$



USA.gov is the U.S. government's official web portal to all federal, state and local government web resources and services.